FW1924 Weather Reports


Display with metric or nautical units.
time (UTC)temp
F
wind
direction
speed
MPH
gust
MPH
rain 1hr
in
rain 24hr
in
rain mn
in
humidity
%
barometer
mb
20260901001513 60 163 5.0 13.0 0.01 0.02 0.02 82 1009.4
20260901000003 60 180 1.0 11.0 0.02 0.02 0.02 82 1009.2
20260831234604 61 228 7.0 14.0 0.02 0.02 0.02 82 1008.5
20260831233048 61 190 11.0 17.0 0.01 0.01 0.01 80 1007.9
20260831231551 62 197 8.0 20.0 0.01 0.01 0.01 75 1007.7
20260831230039 65 219 12.0 36.0 0.00 0.00 0.00 67 1007.2
20260831224557 72 264 19.0 39.0 0.00 0.00 0.00 51 1006.2
20260831223059 76 209 12.0 23.0 0.00 0.00 0.00 42 1005.5
20260831221548 78 200 17.0 27.0 0.00 0.00 0.00 43 1005.0
20260831220039 80 158 12.0 24.0 0.00 0.00 0.00 41 1004.4
20260831214624 82 163 16.0 22.0 0.00 0.00 0.00 34 1004.4
20260831213028 83 134 7.0 17.0 0.00 0.00 0.00 34 1004.5
20260831211614 83 142 6.0 15.0 0.00 0.00 0.00 35 1004.7
20260831210006 83 136 5.0 19.0 0.00 0.00 0.00 36 1004.8
20260831204556 84 152 7.0 17.0 0.00 0.00 0.00 36 1004.8
20260831203047 85 153 8.0 16.0 0.00 0.00 0.00 36 1005.0
20260831201540 84 122 9.0 21.0 0.00 0.00 0.00 36 1005.1
20260831200034 85 153 3.0 20.0 0.00 0.00 0.00 36 1005.5
20260831194536 83 166 10.0 23.0 0.00 0.00 0.00 36 1006.0
20260831193022 82 138 7.0 22.0 0.00 0.00 0.00 37 1006.2
20260831191519 82 163 8.0 19.0 0.00 0.00 0.00 39 1006.3
20260831190127 80 153 12.0 21.0 0.00 0.00 0.00 39 1006.4
20260831184549 79 155 14.0 22.0 0.00 0.00 0.00 42 1006.6
20260831183037 77 163 10.0 15.0 0.00 0.00 0.00 45 1006.8
20260831181530 75 123 3.0 12.0 0.00 0.00 0.00 46 1007.2
20260831180028 75 123 11.0 21.0 0.00 0.00 0.00 46 1007.3
20260831174529 76 138 11.0 17.0 0.00 0.00 0.00 47 1007.3
20260831173034 76 161 11.0 17.0 0.00 0.00 0.00 48 1007.3
20260831171522 75 171 8.0 15.0 0.00 0.00 0.00 52 1007.4
20260831170011 74 141 4.0 15.0 0.00 0.00 0.00 53 1007.6
20260831164509 74 146 3.0 16.0 0.00 0.00 0.00 51 1007.8
20260831163053 74 150 5.0 14.0 0.00 0.00 0.00 49 1007.6
20260831161550 72 163 3.0 11.0 0.00 0.00 0.00 52 1007.3
20260831160038 70 169 9.0 16.0 0.00 0.00 0.00 55 1007.0
20260831154526 68 182 0.0 0.0 0.00 0.00 0.00 65 1007.1
20260831153020 66 173 0.0 2.0 0.00 0.00 0.00 67 1007.4
20260831151512 65 165 0.0 0.0 0.00 0.00 0.00 69 1007.5
20260831144559 64 139 0.0 4.0 0.00 0.00 0.00 72 1007.8
20260831143107 62 135 1.0 9.0 0.00 0.00 0.00 73 1007.8
20260831141548 61 180 0.0 3.0 0.00 0.00 0.00 72 1007.8
20260831140039 60 187 0.0 0.0 0.00 0.00 0.00 70 1007.7
20260831134535 59 190 0.0 0.0 0.00 0.00 0.00 69 1007.5
20260831133033 59 191 0.0 0.0 0.00 0.00 0.00 69 1007.5
20260831131519 58 186 0.0 0.0 0.00 0.00 0.00 70 1007.4
20260831130010 58 192 0.0 0.0 0.00 0.00 0.00 68 1007.4
20260831124504 58 192 0.0 0.0 0.00 0.01 0.00 68 1007.1
20260831123054 59 192 0.0 0.0 0.00 0.01 0.00 68 1007.1
20260831121545 59 191 0.0 0.0 0.00 0.01 0.00 69 1007.1
20260831120059 59 192 0.0 0.0 0.00 0.01 0.00 71 1007.2
20260831114549 59 191 0.0 0.0 0.00 0.01 0.00 71 1007.5
20260831113042 60 184 0.0 0.0 0.00 0.01 0.00 72 1007.5
20260831111532 60 202 0.0 0.0 0.00 0.01 0.00 71 1007.5
20260831110048 60 202 0.0 0.0 0.00 0.01 0.00 71 1007.3
20260831104539 60 204 0.0 0.0 0.00 0.01 0.00 71 1007.3
20260831103031 59 208 0.0 0.0 0.00 0.01 0.00 70 1007.2
20260831101528 59 207 0.0 0.0 0.00 0.01 0.00 71 1007.2
20260831100024 59 201 0.0 0.0 0.00 0.01 0.00 73 1007.1
20260831094514 59 202 0.0 0.0 0.00 0.01 0.00 72 1007.1
20260831093004 60 202 0.0 0.0 0.00 0.01 0.00 70 1007.0
20260831091555 60 202 0.0 0.0 0.00 0.01 0.00 69 1007.0
20260831084535 62 202 0.0 0.0 0.00 0.01 0.00 67 1006.9
20260831083025 62 202 0.0 0.0 0.00 0.01 0.00 66 1006.9
20260831081514 63 201 0.0 0.0 0.00 0.01 0.00 65 1007.0
20260831080013 63 200 0.0 0.0 0.00 0.01 0.00 66 1007.0
20260831074513 63 195 0.0 0.0 0.00 0.01 0.00 66 1007.1
20260831073022 63 185 0.0 0.0 0.00 0.01 0.00 66 1007.2
20260831071504 63 212 0.0 0.0 0.00 0.01 0.00 66 1007.2
20260831070056 63 218 0.0 0.0 0.00 0.01 0.00 66 1007.0
20260831064556 63 223 0.0 0.0 0.00 0.01 0.00 67 1007.0
20260831063045 63 254 0.0 0.0 0.00 0.01 0.00 67 1007.1
20260831061556 63 259 0.0 0.0 0.00 0.01 0.00 67 1007.2
20260831060041 63 260 0.0 0.0 0.00 0.01 0.00 67 1007.2
20260831054534 63 292 0.0 0.0 0.00 0.01 0.01 67 1007.1
20260831053027 63 302 0.0 0.0 0.00 0.01 0.01 66 1007.2
20260831051525 63 309 0.0 0.0 0.00 0.01 0.01 66 1007.2
20260831050110 63 313 0.0 0.0 0.00 0.01 0.01 66 1007.2
20260831044509 64 313 0.0 0.0 0.00 0.01 0.01 65 1006.9
20260831043010 65 313 0.0 0.0 0.00 0.01 0.01 64 1007.0
20260831041502 65 313 0.0 0.0 0.00 0.01 0.01 63 1006.8
20260831040001 66 313 0.0 0.0 0.00 0.01 0.01 63 1006.8
20260831034505 66 313 0.0 0.0 0.00 0.01 0.01 62 1006.7
20260831033003 66 314 0.0 0.0 0.00 0.01 0.01 61 1006.6
20260831031501 67 323 0.0 0.0 0.00 0.01 0.01 60 1006.4
20260831030110 67 327 0.0 0.0 0.00 0.01 0.01 59 1006.3
20260831024611 69 350 0.0 0.0 0.00 0.01 0.01 59 1006.2
20260831023038 70 350 0.0 0.0 0.00 0.01 0.01 57 1006.1
20260831021531 71 350 0.0 0.0 0.00 0.01 0.01 54 1005.9
20260831020023 72 350 0.0 0.0 0.00 0.01 0.01 50 1005.7
20260831014528 73 350 0.0 0.0 0.00 0.01 0.01 49 1005.8
20260831013006 74 350 0.0 0.0 0.00 0.01 0.01 49 1005.7
20260831011604 74 350 0.0 0.0 0.00 0.01 0.01 48 1005.9
20260831010049 74 321 0.0 1.0 0.00 0.01 0.01 48 1005.9
20260831004550 74 360 0.0 2.0 0.00 0.02 0.01 49 1005.9
20260831003014 75 360 0.0 1.0 0.00 0.02 0.01 48 1006.0